When you browse on this site, cookies collect data to enhance your experience and personalize the content and advertising you see.
Visit our Privacy Policy to learn more. By continuing to use the site, you agree to this use of cookies and data.
  • en France
  • Liste des pays
  • À 7 jours
  • Température de l'eau
  • Carte satellitaire
  • Carte météo
  • Widgets météo
  • user-avatar
    Se connecter

    Météo par heure à Hobart

    Ce jour, 13 Décembre, Jeudi

    Heure Température Précipitation Vent Pression Humidité
    00:00 +14°C° 0 mm 5 m/s 740 mmHg 83%
    01:00 +13°C° 0 mm 5 m/s 740 mmHg 86%
    02:00 +13°C° 0 mm 5 m/s 740 mmHg 88%
    03:00 +13°C° 0 mm 5 m/s 740 mmHg 90%
    04:00 +12°C° 0 mm 4 m/s 739 mmHg 95%
    05:00 +13°C° 0 mm 4 m/s 739 mmHg 87%
    06:00 +15°C° 0 mm 5 m/s 739 mmHg 80%
    07:00 +17°C° 0 mm 5 m/s 740 mmHg 72%
    08:00 +20°C° 0 mm 5 m/s 740 mmHg 67%
    09:00 +22°C° 0 mm 6 m/s 740 mmHg 61%
    10:00 +24°C° 0 mm 6 m/s 740 mmHg 55%
    11:00 +23°C° 0 mm 6 m/s 740 mmHg 58%
    12:00 +23°C° 0 mm 6 m/s 740 mmHg 61%
    13:00 +22°C° 0 mm 6 m/s 740 mmHg 64%
    14:00 +22°C° 0 mm 5 m/s 740 mmHg 67%
    15:00 +21°C° 0 mm 5 m/s 740 mmHg 70%
    16:00 +21°C° 0 mm 5 m/s 740 mmHg 73%
    17:00 +20°C° 0 mm 4 m/s 741 mmHg 77%
    18:00 +19°C° 0 mm 4 m/s 741 mmHg 81%
    19:00 +19°C° 0 mm 4 m/s 742 mmHg 85%
    20:00 +18°C° 0 mm 3 m/s 742 mmHg 88%
    21:00 +17°C° 0 mm 3 m/s 743 mmHg 92%
    22:00 +17°C° 0 mm 3 m/s 743 mmHg 95%
    23:00 +16°C° 0 mm 3 m/s 744 mmHg 96%

    Demain, 14 Décembre, Vendredi

    Heure Température Précipitation Vent Pression Humidité
    00:00 +16°C° 0 mm 3 m/s 744 mmHg 97%
    01:00 +16°C° 0 mm 2 m/s 745 mmHg 98%
    02:00 +16°C° 0 mm 2 m/s 745 mmHg 97%
    03:00 +16°C° 0 mm 2 m/s 745 mmHg 97%
    04:00 +16°C° 0 mm 2 m/s 745 mmHg 96%
    05:00 +16°C° 0 mm 2 m/s 746 mmHg 94%
    06:00 +16°C° 0 mm 2 m/s 746 mmHg 91%
    07:00 +16°C° 0 mm 3 m/s 746 mmHg 89%
    08:00 +17°C° 0 mm 3 m/s 747 mmHg 83%
    09:00 +18°C° 0 mm 3 m/s 747 mmHg 78%
    10:00 +19°C° 0 mm 3 m/s 748 mmHg 72%
    11:00 +21°C° 0 mm 3 m/s 748 mmHg 62%
    12:00 +23°C° 0 mm 4 m/s 748 mmHg 53%
    13:00 +26°C° 0 mm 4 m/s 747 mmHg 43%
    14:00 +26°C° 0 mm 4 m/s 747 mmHg 45%
    15:00 +25°C° 0 mm 5 m/s 748 mmHg 47%
    16:00 +25°C° 0 mm 5 m/s 748 mmHg 48%
    17:00 +22°C° 0 mm 5 m/s 748 mmHg 57%
    18:00 +20°C° 0 mm 4 m/s 748 mmHg 66%
    19:00 +19°C° 0 mm 4 m/s 748 mmHg 75%
    20:00 +18°C° 0 mm 4 m/s 749 mmHg 80%
    21:00 +17°C° 0 mm 3 m/s 749 mmHg 85%
    22:00 +16°C° 0 mm 3 m/s 750 mmHg 91%
    23:00 +14°C° 0 mm 3 m/s 750 mmHg 91%

    Après-demain, 15 Décembre, Samedi

    Heure Température Précipitation Vent Pression Humidité
    00:00 +14°C° 0 mm 3 m/s 750 mmHg 92%
    01:00 +14°C° 0 mm 3 m/s 749 mmHg 93%
    02:00 +14°C° 0 mm 3 m/s 749 mmHg 94%
    03:00 +14°C° 0 mm 3 m/s 749 mmHg 95%
    04:00 +14°C° 0 mm 3 m/s 749 mmHg 95%
    05:00 +14°C° 0 mm 3 m/s 749 mmHg 93%
    06:00 +16°C° 0 mm 3 m/s 749 mmHg 90%
    07:00 +17°C° 0 mm 3 m/s 749 mmHg 88%
    08:00 +18°C° 0.1 mm 4 m/s 749 mmHg 84%
    09:00 +19°C° 0.1 mm 4 m/s 749 mmHg 81%
    10:00 +20°C° 0.1 mm 4 m/s 749 mmHg 77%
    11:00 +19°C° 0.2 mm 4 m/s 748 mmHg 80%
    12:00 +19°C° 0.2 mm 4 m/s 748 mmHg 84%
    13:00 +19°C° 0.2 mm 4 m/s 748 mmHg 87%
    14:00 +18°C° 0.1 mm 4 m/s 748 mmHg 88%
    15:00 +18°C° 0.1 mm 4 m/s 747 mmHg 89%
    16:00 +18°C° 0.1 mm 4 m/s 747 mmHg 90%
    17:00 +18°C° 0.1 mm 4 m/s 747 mmHg 92%
    18:00 +18°C° 0.1 mm 4 m/s 747 mmHg 93%
    19:00 +18°C° 0.1 mm 4 m/s 746 mmHg 94%
    20:00 +18°C° 0.1 mm 4 m/s 746 mmHg 95%
    21:00 +18°C° 0.1 mm 4 m/s 746 mmHg 96%
    22:00 +17°C° 0.1 mm 4 m/s 746 mmHg 97%
    23:00 +18°C° 0.9 mm 4 m/s 746 mmHg 98%

    16 Décembre, Dimanche

    Heure Température Précipitation Vent Pression Humidité
    00:00 +18°C° 0.9 mm 4 m/s 745 mmHg 98%
    01:00 +18°C° 0.9 mm 4 m/s 745 mmHg 98%
    02:00 +17°C° 0.8 mm 5 m/s 744 mmHg 98%
    03:00 +17°C° 0.8 mm 5 m/s 743 mmHg 98%
    04:00 +17°C° 0.8 mm 5 m/s 743 mmHg 98%
    05:00 +17°C° 0.8 mm 5 m/s 742 mmHg 98%
    06:00 +17°C° 0.8 mm 5 m/s 742 mmHg 98%
    07:00 +17°C° 0.8 mm 5 m/s 742 mmHg 98%
    08:00 +19°C° 0.3 mm 4 m/s 741 mmHg 97%
    09:00 +19°C° 0.3 mm 4 m/s 741 mmHg 96%
    10:00 +20°C° 0.3 mm 4 m/s 740 mmHg 95%
    11:00 +22°C° 0.1 mm 4 m/s 740 mmHg 85%
    12:00 +25°C° 0.1 mm 3 m/s 739 mmHg 75%
    13:00 +27°C° 0.1 mm 3 m/s 739 mmHg 66%
    14:00 +27°C° 0.3 mm 4 m/s 738 mmHg 65%
    15:00 +27°C° 0.3 mm 4 m/s 738 mmHg 64%
    16:00 +27°C° 0.3 mm 4 m/s 738 mmHg 64%
    17:00 +26°C° 0.5 mm 4 m/s 738 mmHg 71%
    18:00 +24°C° 0.5 mm 3 m/s 738 mmHg 78%
    19:00 +21°C° 0.5 mm 2 m/s 738 mmHg 85%
    20:00 +20°C° 0.1 mm 2 m/s 738 mmHg 88%
    21:00 +19°C° 0.1 mm 2 m/s 738 mmHg 91%
    22:00 +18°C° 0.1 mm 2 m/s 738 mmHg 94%
    23:00 +17°C° 0.2 mm 2 m/s 738 mmHg 95%

    17 Décembre, Lundi

    Heure Température Précipitation Vent Pression Humidité
    00:00 +17°C° 0.2 mm 2 m/s 738 mmHg 96%
    01:00 +17°C° 0.2 mm 2 m/s 738 mmHg 97%
    02:00 +17°C° 0.3 mm 2 m/s 738 mmHg 97%
    03:00 +17°C° 0.3 mm 2 m/s 738 mmHg 97%
    04:00 +17°C° 0.3 mm 2 m/s 738 mmHg 97%
    05:00 +18°C° 0.2 mm 3 m/s 738 mmHg 97%
    06:00 +18°C° 0.2 mm 3 m/s 738 mmHg 96%
    07:00 +18°C° 0.2 mm 3 m/s 739 mmHg 95%
    08:00 +19°C° 0.1 mm 3 m/s 739 mmHg 90%
    09:00 +20°C° 0.1 mm 4 m/s 740 mmHg 84%
    10:00 +21°C° 0.1 mm 4 m/s 740 mmHg 79%
    11:00 +21°C° 0.1 mm 5 m/s 740 mmHg 79%
    12:00 +21°C° 0.1 mm 5 m/s 741 mmHg 79%
    13:00 +21°C° 0.1 mm 5 m/s 741 mmHg 78%
    14:00 +20°C° 0.1 mm 5 m/s 742 mmHg 78%
    15:00 +20°C° 0.1 mm 5 m/s 742 mmHg 79%
    16:00 +19°C° 0.1 mm 5 m/s 743 mmHg 79%
    17:00 +19°C° 0.1 mm 5 m/s 744 mmHg 81%
    18:00 +17°C° 0.1 mm 5 m/s 745 mmHg 83%
    19:00 +16°C° 0.1 mm 5 m/s 746 mmHg 85%
    20:00 +15°C° 0.1 mm 5 m/s 746 mmHg 87%
    21:00 +14°C° 0.1 mm 4 m/s 747 mmHg 90%
    22:00 +14°C° 0.1 mm 4 m/s 748 mmHg 93%
    23:00 +13°C° 0.1 mm 4 m/s 748 mmHg 93%

    18 Décembre, Mardi

    Heure Température Précipitation Vent Pression Humidité
    00:00 +13°C° 0.1 mm 4 m/s 748 mmHg 94%
    01:00 +13°C° 0.1 mm 3 m/s 748 mmHg 95%
    02:00 +13°C° 0 mm 3 m/s 748 mmHg 95%
    03:00 +12°C° 0 mm 3 m/s 749 mmHg 95%
    04:00 +12°C° 0 mm 3 m/s 749 mmHg 95%
    05:00 +12°C° 0 mm 3 m/s 750 mmHg 93%
    06:00 +13°C° 0 mm 3 m/s 750 mmHg 90%
    07:00 +13°C° 0 mm 3 m/s 751 mmHg 87%
    08:00 +15°C° 0 mm 2 m/s 751 mmHg 81%
    09:00 +15°C° 0 mm 2 m/s 751 mmHg 75%
    10:00 +16°C° 0 mm 2 m/s 752 mmHg 69%
    11:00 +18°C° 0 mm 2 m/s 752 mmHg 61%
    12:00 +20°C° 0 mm 3 m/s 752 mmHg 53%
    13:00 +22°C° 0 mm 3 m/s 752 mmHg 45%
    14:00 +22°C° 0 mm 3 m/s 751 mmHg 47%
    15:00 +21°C° 0 mm 3 m/s 751 mmHg 49%
    16:00 +21°C° 0 mm 4 m/s 751 mmHg 51%
    17:00 +19°C° 0 mm 3 m/s 751 mmHg 57%
    18:00 +18°C° 0 mm 3 m/s 751 mmHg 63%
    19:00 +16°C° 0 mm 3 m/s 751 mmHg 69%
    20:00 +13°C° 0 mm 3 m/s 751 mmHg 77%
    21:00 +12°C° 0 mm 3 m/s 751 mmHg 85%
    22:00 +10°C° 0 mm 3 m/s 751 mmHg 93%
    23:00 +10°C° 0 mm 3 m/s 751 mmHg 94%
    Voir plus